Regional Weather Roundup
Issued by NWS

Home | Current Version | Previous Version | Graphics & Text | Print | Product List | Glossary On
Versions: 1 2 3 4 5 6 7 8 9 10 11 12 13 14 15 16 17 18 19 20 21 22 23 24 25 26 27
000
ASUS45 KCYS 200310
RWRWY

WYOMING REGIONAL WEATHER ROUNDUP
NATIONAL WEATHER SERVICE CHEYENNE WY
900 PM MDT SAT APR 19 2014

NOTE:  "FAIR" INDICATES FEW OR NO CLOUDS BELOW 12,000 FEET
WITH NO SIGNIFICANT WEATHER AND/OR OBSTRUCTIONS TO VISIBILITY.

WYZ001-200400-
YELLOWSTONE NATIONAL PARK

CITY           SKY/WX    TMP DP  RH WIND       PRES   REMARKS
LK YELLOWSTONE   N/A     32  23  69 CALM      30.09R
W YELLOWSTONE  NOT AVBL

$$
WYZ002>013-054>058-071-098>099-200400-
NORTHERN WYOMING

CITY           SKY/WX    TMP DP  RH WIND       PRES   REMARKS
JACKSON        MOCLDY    46  25  42 CALM      30.03R
CODY           MOCLDY    55  19  24 SW10      29.93S
GREYBULL       CLEAR     58  26  29 SE5       29.89R
WORLAND        CLEAR     49  30  48 E6        29.90R
SHERIDAN         N/A     48  36  61 SW8         N/A
BUFFALO        CLEAR     45  31  58 SW10      29.96S
GILLETTE       PTCLDY    48  30  49 CALM      29.97R
HULETT         FAIR      50  32  50 SE9       29.99
NEWCASTLE      FAIR      52  32  46 E12       30.00

$$
WYZ014>020-022>026-101>103-200400-
CENTRAL WYOMING

CITY           SKY/WX    TMP DP  RH WIND       PRES   REMARKS
BIG PINEY      CLEAR     46  19  34 NE6       30.09R
PINEDALE       CLEAR     41  28  60 W7        30.09R
DUBOIS         FAIR      43  18  36 W10       30.05R
LANDER         PTCLDY    55  23  28 SW3       29.96R
RIVERTON       PTCLDY    51  14  22 NW12      29.96R
CASPER         MOCLDY    51  37  58 E7        29.97R
DOUGLAS        PTCLDY    51  40  65 SE8       29.98R

$$
WYZ021-027>030-104>119-200400-
SOUTHERN WYOMING

CITY           SKY/WX    TMP DP  RH WIND       PRES   REMARKS
EVANSTON       PTCLDY    46  27  47 SW9       30.10R
KEMMERER       PTCLDY    45  32  61 W8        30.10R
FORT BRIDGER   FAIR      50  29  44 W9        30.11R
ROCK SPRINGS   PTCLDY    52  30  43 S9        30.07R
DIXON          FAIR      42  36  78 E6        30.11R
RAWLINS        PTCLDY    49  33  54 SW10      30.06R
SARATOGA       FAIR      41  32  70 CALM      30.10R
LARAMIE        PTCLDY    45  37  73 SE10      30.10R
CHEYENNE       MOCLDY    50  41  71 S15       30.09R
TORRINGTON     PTCLDY    54  35  48 SE10      30.00R
PINE BLUFFS    FAIR      50  36  57 SW6       30.08R

$$



USA.gov is the U.S. government's official web portal to all federal, state and local government web resources and services.